2024-147C

Last updated on Mon Sep 16 2024 00:02:03 GMT+0000 (Coordinated Universal Time)

1 60456U 24147C 24258.97740419 .00070990 00000+0 70501-3 0 9991 2 60456 36.9260 104.8501 0074915 156.0327 204.3948 15.61047961 4653
UTC large
Height (km)
Speed (km/s)
/
Latitude / Longitude
Inclination (degrees)
Orbital Period (minutes)
Azimuth
Elevation
Range (km)
Doppler Factor

Next 0 passes for location: London (51.5072 / 0.1276)

Sorry there are no passes over London.